FW0824 Weather Reports


Display with metric or nautical units.
time (UTC)temp
F
wind
direction
speed
MPH
gust
MPH
rain 1hr
in
rain 24hr
in
rain mn
in
humidity
%
barometer
mb
20260502223320 66 243 4.0 11.0 0.00 0.00 0.00 33 1012.3
20260502222819 65 281 6.0 16.0 0.00 0.00 0.00 33 1012.4
20260502221819 65 248 5.0 14.0 0.00 0.00 0.00 33 1012.5
20260502221319 65 212 4.0 10.0 0.00 0.00 0.00 33 1012.5
20260502220819 65 223 5.0 15.0 0.00 0.00 0.00 33 1012.4
20260502220319 66 234 6.0 15.0 0.00 0.00 0.00 33 1012.6
20260502214816 66 270 3.0 10.0 0.00 0.00 0.00 32 1013.0
20260502214315 66 260 5.0 16.0 0.00 0.00 0.00 33 1013.1
20260502213817 67 248 6.0 16.0 0.00 0.00 0.00 31 1013.1
20260502212812 67 250 6.0 15.0 0.00 0.00 0.00 32 1013.3
20260502212313 67 245 5.0 13.0 0.00 0.00 0.00 30 1013.1
20260502211811 67 160 6.0 16.0 0.00 0.00 0.00 32 1013.3
20260502210812 67 256 6.0 17.0 0.00 0.00 0.00 31 1013.5
20260502210312 66 289 7.0 17.0 0.00 0.00 0.00 32 1013.6
20260502205812 66 252 8.0 17.0 0.00 0.00 0.00 32 1013.8
20260502205313 66 259 8.0 18.0 0.00 0.00 0.00 31 1013.8
20260502204808 66 267 7.0 18.0 0.00 0.00 0.00 31 1014.1
20260502204308 66 234 7.0 15.0 0.00 0.00 0.00 31 1014.1
20260502203807 66 253 6.0 16.0 0.00 0.00 0.00 32 1014.3
20260502203307 66 237 6.0 16.0 0.00 0.00 0.00 31 1014.3
20260502202808 66 238 6.0 15.0 0.00 0.00 0.00 32 1014.4
20260502202306 65 253 6.0 19.0 0.00 0.00 0.00 32 1014.4
20260502201807 65 252 6.0 19.0 0.00 0.00 0.00 33 1014.7
20260502201303 65 227 5.0 12.0 0.00 0.00 0.00 32 1014.8
20260502200802 65 273 6.0 18.0 0.00 0.00 0.00 32 1014.9
20260502195801 65 199 7.0 18.0 0.00 0.00 0.00 32 1015.2
20260502195304 64 218 6.0 16.0 0.00 0.00 0.00 32 1015.1
20260502194301 64 245 5.0 11.0 0.00 0.00 0.00 32 1015.2
20260502193801 64 239 7.0 15.0 0.00 0.00 0.00 34 1015.4
20260502193300 63 214 6.0 15.0 0.00 0.00 0.00 33 1015.4
20260502192802 63 267 5.0 20.0 0.00 0.00 0.00 33 1015.6
20260502192300 62 273 6.0 20.0 0.00 0.00 0.00 35 1015.7
20260502191801 62 199 5.0 16.0 0.00 0.00 0.00 34 1015.6
20260502191301 62 273 7.0 16.0 0.00 0.00 0.00 33 1015.9
20260502185801 61 234 8.0 18.0 0.00 0.00 0.00 34 1016.2
20260502185301 61 244 8.0 18.0 0.00 0.00 0.00 33 1016.3
20260502184301 61 248 6.0 17.0 0.00 0.00 0.00 33 1016.3
20260502183801 61 188 6.0 16.0 0.00 0.00 0.00 34 1016.4
20260502183302 61 290 8.0 20.0 0.00 0.00 0.00 34 1016.6
20260502182304 61 254 3.0 13.0 0.00 0.00 0.00 34 1016.8
20260502181802 60 287 5.0 14.0 0.00 0.00 0.00 35 1016.9
20260502181301 60 244 5.0 14.0 0.00 0.00 0.00 34 1016.8
20260502180301 60 202 5.0 11.0 0.00 0.00 0.00 35 1017.2
20260502170302 58 205 7.0 17.0 0.00 0.00 0.00 35 1018.2
20260502164302 57 246 5.0 20.0 0.00 0.00 0.00 36 1018.3
20260502163802 57 250 5.0 13.0 0.00 0.00 0.00 36 1018.4
20260502163302 56 123 5.0 13.0 0.00 0.00 0.00 35 1018.5
20260502162802 57 255 5.0 18.0 0.00 0.00 0.00 37 1018.6
20260502161802 56 221 7.0 14.0 0.00 0.00 0.00 36 1018.7
20260502161303 56 232 6.0 15.0 0.00 0.00 0.00 37 1018.7
20260502160301 56 240 4.0 11.0 0.00 0.00 0.00 39 1018.9
20260502152233 54 286 7.0 14.0 0.00 0.00 0.00 40 1019.2
20260502150733 53 244 6.0 16.0 0.00 0.00 0.00 43 1019.3
20260502150234 53 264 6.0 16.0 0.00 0.00 0.00 42 1019.3
20260502130725 46 260 3.0 9.0 0.00 0.00 0.00 55 1019.8
20260502130225 46 253 2.0 9.0 0.00 0.00 0.00 56 1019.8
20260502123721 42 317 1.0 4.0 0.00 0.00 0.00 64 1020.0
20260502123217 42 254 1.0 3.0 0.00 0.00 0.00 67 1019.8
20260502122717 41 254 0.0 3.0 0.00 0.00 0.00 69 1019.8
20260502122217 40 255 0.0 0.0 0.00 0.00 0.00 71 1019.9
20260502121718 40 255 0.0 0.0 0.00 0.00 0.00 72 1019.8
20260502120216 38 255 0.0 0.0 0.00 0.00 0.00 72 1019.8
20260502115714 38 255 0.0 0.0 0.00 0.00 0.00 72 1019.9
20260502115210 38 255 0.0 0.0 0.00 0.00 0.00 72 1019.8
20260502114212 37 255 0.0 0.0 0.00 0.00 0.00 73 1019.9
20260502113708 37 255 0.0 0.0 0.00 0.00 0.00 73 1019.9
20260502113208 37 255 0.0 0.0 0.00 0.00 0.00 72 1019.7
20260502112707 37 255 0.0 0.0 0.00 0.00 0.00 71 1019.7
20260502112206 37 255 0.0 0.0 0.00 0.00 0.00 71 1019.6
20260502111206 37 255 0.0 0.0 0.00 0.00 0.00 70 1019.6
20260502110707 37 255 0.0 0.0 0.00 0.00 0.00 70 1019.6
20260502110208 37 255 0.0 0.0 0.00 0.00 0.00 69 1019.7
20260502105202 38 255 0.0 1.0 0.00 0.00 0.00 68 1019.6
20260502104701 38 255 0.0 1.0 0.00 0.00 0.00 67 1019.5
20260502104201 38 255 0.0 1.0 0.00 0.00 0.00 67 1019.6
20260502103201 39 255 0.0 0.0 0.00 0.00 0.00 65 1019.5
20260502102701 39 255 0.0 0.0 0.00 0.00 0.00 64 1019.5
20260502102201 39 255 0.0 0.0 0.00 0.00 0.00 64 1019.4
20260502101700 39 255 0.0 0.0 0.00 0.00 0.00 63 1019.4
20260502101201 40 255 0.0 0.0 0.00 0.00 0.00 63 1019.5
20260502100702 40 255 0.0 1.0 0.00 0.00 0.00 63 1019.4
20260502100202 40 255 0.0 2.0 0.00 0.00 0.00 63 1019.3
20260502091203 42 255 2.0 6.0 0.00 0.00 0.00 60 1019.3
20260502090701 42 261 2.0 6.0 0.00 0.00 0.00 60 1019.3
20260502070634 43 248 3.0 5.0 0.00 0.00 0.00 59 1019.6
20260502070134 43 248 3.0 5.0 0.00 0.00 0.00 59 1019.6
20260502065634 43 250 2.0 5.0 0.00 0.00 0.00 59 1019.6
20260502065135 43 252 2.0 4.0 0.00 0.00 0.00 59 1019.7
20260502064634 43 254 2.0 4.0 0.00 0.00 0.00 59 1019.6
20260502064136 43 254 2.0 4.0 0.00 0.00 0.00 60 1019.6
20260502063134 43 258 1.0 3.0 0.00 0.00 0.00 60 1019.6
20260502062634 43 258 1.0 3.0 0.00 0.00 0.00 60 1019.7
20260502062134 43 259 1.0 3.0 0.00 0.00 0.00 60 1019.7
20260502061630 43 259 2.0 3.0 0.00 0.00 0.00 60 1019.6
20260502061130 43 259 2.0 3.0 0.00 0.00 0.00 60 1019.7
20260502060629 43 259 1.0 3.0 0.00 0.00 0.00 59 1019.8
20260502060130 43 259 1.0 3.0 0.00 0.00 0.00 59 1019.8
20260502055629 43 259 1.0 3.0 0.00 0.00 0.00 59 1019.8
20260502055130 43 259 1.0 3.0 0.00 0.00 0.00 58 1019.8
20260502054627 43 260 1.0 3.0 0.00 0.00 0.00 58 1019.8
20260502054121 43 260 1.0 3.0 0.00 0.00 0.00 58 1019.9
20260502053109 43 260 1.0 3.0 0.00 0.00 0.00 57 1019.8
20260502052603 43 260 1.0 3.0 0.00 0.00 0.00 57 1019.9
20260502052102 43 261 1.0 2.0 0.00 0.00 0.00 57 1019.8
20260502051603 43 261 1.0 2.0 0.00 0.00 0.00 56 1019.7
20260502051101 43 261 1.0 2.0 0.00 0.00 0.00 57 1019.7
20260502050603 43 261 1.0 1.0 0.00 0.00 0.00 56 1019.6
20260502045604 43 261 1.0 2.0 0.00 0.00 0.00 55 1019.7
20260502045102 43 261 1.0 3.0 0.00 0.00 0.00 55 1019.6
20260502044602 44 261 1.0 3.0 0.00 0.00 0.00 55 1019.6
20260502044102 44 261 1.0 3.0 0.00 0.00 0.00 54 1019.7
20260502043602 44 261 1.0 3.0 0.00 0.00 0.00 54 1019.7
20260502043102 44 261 1.0 3.0 0.00 0.00 0.00 54 1019.7
20260502042601 44 261 1.0 3.0 0.00 0.00 0.00 54 1019.7
20260502042100 44 261 1.0 3.0 0.00 0.00 0.00 53 1019.7
20260502041601 44 261 0.0 0.0 0.00 0.00 0.00 53 1019.6
20260502041101 44 261 0.0 2.0 0.00 0.00 0.00 53 1019.7
20260502040602 44 261 1.0 2.0 0.00 0.00 0.00 53 1019.7
20260502035556 45 261 0.0 2.0 0.00 0.00 0.00 51 1019.8
20260502035051 45 261 0.0 0.0 0.00 0.00 0.00 50 1019.8
20260502034545 45 261 0.0 0.0 0.00 0.00 0.00 50 1019.8
20260502034043 45 261 0.0 0.0 0.00 0.00 0.00 50 1019.8
20260502033043 45 261 0.0 0.0 0.00 0.00 0.00 49 1019.8
20260502032541 46 261 0.0 0.0 0.00 0.00 0.00 48 1019.9
20260502032041 46 261 0.0 0.0 0.00 0.00 0.00 48 1019.8
20260502031541 46 261 0.0 0.0 0.00 0.00 0.00 47 1019.9
20260502031039 46 261 0.0 0.0 0.00 0.00 0.00 47 1019.9
20260502030537 46 261 0.0 0.0 0.00 0.00 0.00 46 1019.8
20260502025532 47 261 0.0 0.0 0.00 0.00 0.00 46 1019.9
20260502024031 47 261 0.0 1.0 0.00 0.00 0.00 44 1019.9
20260502023532 48 261 0.0 1.0 0.00 0.00 0.00 44 1019.8
20260502023030 48 261 1.0 2.0 0.00 0.00 0.00 43 1019.8
20260502022530 48 261 1.0 2.0 0.00 0.00 0.00 42 1019.8
20260502022030 48 261 1.0 2.0 0.00 0.00 0.00 41 1019.8
20260502021529 49 261 1.0 2.0 0.00 0.00 0.00 41 1019.7
20260502021029 49 261 1.0 3.0 0.00 0.00 0.00 40 1019.8
20260502020529 49 261 1.0 3.0 0.00 0.00 0.00 39 1019.7
20260502020030 50 261 1.0 2.0 0.00 0.00 0.00 39 1019.6
20260502015530 50 261 1.0 3.0 0.00 0.00 0.00 38 1019.6
20260502015030 50 261 1.0 3.0 0.00 0.00 0.00 37 1019.5
20260502014530 51 261 1.0 3.0 0.00 0.00 0.00 37 1019.5
20260502014028 51 281 1.0 3.0 0.00 0.00 0.00 37 1019.4
20260502013529 51 284 0.0 3.0 0.00 0.00 0.00 36 1019.4
20260502013028 51 284 1.0 3.0 0.00 0.00 0.00 36 1019.4
20260502012529 51 284 1.0 4.0 0.00 0.00 0.00 35 1019.4
20260502012030 51 285 0.0 4.0 0.00 0.00 0.00 34 1019.3
20260502011529 52 355 0.0 3.0 0.00 0.00 0.00 34 1019.3
20260502011029 52 355 1.0 5.0 0.00 0.00 0.00 34 1019.3
20260502010530 52 335 3.0 6.0 0.00 0.00 0.00 34 1019.4
20260502010028 52 355 2.0 6.0 0.00 0.00 0.00 33 1019.4
20260502005030 52 340 2.0 5.0 0.00 0.00 0.00 33 1019.3
20260502004531 52 312 2.0 5.0 0.00 0.00 0.00 33 1019.3
20260502004029 53 162 2.0 5.0 0.00 0.00 0.00 33 1019.2
20260502003529 53 299 2.0 5.0 0.00 0.00 0.00 33 1019.2
20260502003029 53 313 2.0 5.0 0.00 0.00 0.00 33 1019.3
20260502002529 53 318 2.0 8.0 0.00 0.00 0.00 33 1019.3
20260502001529 53 248 2.0 9.0 0.00 0.00 0.00 32 1019.3
20260502000529 53 338 3.0 9.0 0.00 0.00 0.00 34 1019.3
20260502000030 53 248 2.0 6.0 0.00 0.00 0.00 32 1019.1
20260501235529 53 304 1.0 4.0 0.00 0.00 0.00 33 1019.3
20260501235029 53 326 2.0 3.0 0.00 0.00 0.00 33 1019.3
20260501234530 52 326 2.0 5.0 0.00 0.00 0.00 33 1019.4
20260501232529 54 338 4.0 11.0 0.00 0.00 0.00 31 1019.3
20260501232030 54 350 5.0 14.0 0.00 0.00 0.00 32 1019.2
20260501231529 54 340 5.0 14.0 0.00 0.00 0.00 31 1019.2
20260501231030 55 297 4.0 9.0 0.00 0.00 0.00 31 1019.2
20260501230529 55 314 4.0 9.0 0.00 0.00 0.00 31 1019.1
20260501230030 55 296 3.0 9.0 0.00 0.00 0.00 32 1019.2
20260501225530 55 338 3.0 9.0 0.00 0.00 0.00 32 1019.3
20260501225027 55 270 5.0 12.0 0.00 0.00 0.00 30 1019.2
20260501224525 55 226 6.0 13.0 0.00 0.00 0.00 31 1019.3
20260501224023 55 261 5.0 13.0 0.00 0.00 0.00 31 1019.2